GFSSW_700_spd_159.txt.gz
Wind_Speed
8 7 6 4 4 3 2 2 2 3 4 5 6 9 10 13 17 14 12 10 7 7 9 12 7 3 5 8 7 8 2 7 10 14 15 11 14 10 0 3 4 7 11 14 15
9 8 7 6 5 4 4 2 2 3 4 4 5 6 9 9 10 16 17 13 11 8 11 9 8 6 4 4 13 10 1 17 14 11 10 15 19 11 6 2 6 4 13 12 14
9 9 8 7 6 6 5 4 3 3 4 4 3 5 6 8 9 12 19 16 14 10 12 10 6 3 4 4 11 11 3 11 19 11 5 11 13 17 8 3 7 9 11 16 16
10 9 8 7 7 7 6 6 5 3 3 3 3 4 5 8 8 9 14 19 16 12 11 10 6 0 4 3 10 7 3 8 17 15 10 11 18 15 6 5 9 10 8 13 16
9 8 7 7 7 7 7 6 6 4 2 1 2 3 6 10 11 5 12 17 19 15 12 14 6 4 4 1 7 5 3 8 18 8 13 15 14 13 12 9 6 10 13 11 12
10 9 8 7 7 8 8 7 6 5 4 2 1 2 5 9 8 4 7 15 22 17 18 13 5 5 5 1 3 5 6 7 15 14 11 6 13 17 15 14 5 13 9 11 11
10 9 8 7 7 7 7 7 7 7 7 6 4 2 7 6 5 5 9 18 24 20 20 12 11 6 10 3 5 7 7 11 8 20 8 14 16 18 21 15 6 11 9 8 9
9 8 7 6 6 6 7 9 11 13 12 13 12 10 5 1 3 5 13 19 23 21 19 13 11 8 4 2 5 7 6 8 11 13 14 16 18 16 18 15 6 8 11 10 4
9 7 5 4 4 5 7 9 10 10 11 11 11 10 13 5 2 10 15 18 22 22 17 14 10 7 8 8 7 5 4 6 12 13 13 12 15 15 20 18 13 11 10 6 5
9 7 5 3 1 4 4 5 2 2 4 8 8 11 14 14 8 11 15 18 21 23 19 15 6 10 13 12 6 3 3 8 9 11 16 16 16 18 17 24 22 16 13 13 11
10 7 5 2 1 3 3 3 2 3 1 6 8 9 9 10 10 7 10 15 20 20 18 16 12 19 16 10 6 11 14 12 8 9 6 13 16 19 22 26 29 24 20 16 14
9 7 4 2 2 3 1 4 5 4 5 8 10 11 10 9 9 6 9 11 13 16 20 18 21 17 14 14 14 14 15 15 10 11 8 9 12 10 20 28 27 26 27 21 19
9 7 3 2 3 5 5 3 3 4 4 7 5 8 8 7 7 7 9 16 14 12 15 15 8 17 16 12 15 17 17 18 12 9 10 8 12 16 14 24 31 29 28 26 26
9 7 4 2 4 7 6 3 2 4 1 4 5 7 8 4 4 5 11 8 8 6 2 7 5 7 10 13 14 19 7 12 16 13 5 10 3 4 8 15 24 33 32 29 30
10 7 5 5 6 7 3 5 1 3 3 3 7 6 5 2 3 4 10 7 5 3 3 4 4 2 3 5 4 6 10 10 15 13 7 6 6 3 11 11 16 24 36 33 31
10 8 6 7 8 8 5 7 1 3 3 4 5 7 6 5 3 3 3 7 9 8 8 5 7 7 5 1 2 5 9 13 12 13 7 18 11 6 4 6 3 10 15 29 36
11 7 6 8 10 10 11 8 3 5 4 3 5 7 6 6 5 8 5 7 3 4 3 3 7 12 14 13 11 9 15 3 0 2 8 9 8 14 10 8 11 10 13 18 39
12 8 8 11 9 13 13 9 6 2 7 3 7 5 8 10 11 8 10 6 5 4 4 3 3 12 13 19 10 7 14 6 6 4 6 7 6 3 5 6 9 9 8 13 25
11 9 8 9 12 16 17 13 3 3 8 6 5 5 5 8 6 10 13 11 11 6 6 3 6 7 5 12 14 9 10 4 2 1 1 3 5 6 6 9 13 11 8 9 12
9 8 7 9 13 15 19 17 7 5 5 4 2 4 4 6 10 10 9 1 6 7 10 4 8 2 8 8 15 13 1 4 4 3 2 2 4 4 5 11 10 10 13 12 15
8 6 6 9 12 15 19 23 13 4 3 4 5 5 2 5 6 6 3 5 9 8 6 1 2 5 3 9 2 12 5 2 3 1 5 1 4 4 8 9 10 12 11 11 11
9 9 11 8 10 12 18 22 21 11 3 7 7 7 4 3 5 4 5 6 4 4 5 3 1 7 17 14 9 9 8 5 2 4 3 3 5 4 6 12 10 10 13 11 9
13 13 15 15 15 9 10 9 16 17 9 9 7 4 6 4 5 4 3 1 4 7 3 1 3 5 8 5 3 5 9 6 2 7 9 5 5 9 13 13 13 12 13 7 2
11 10 19 22 20 18 16 13 13 18 11 6 10 11 9 7 4 7 7 6 6 3 5 2 1 2 4 2 2 5 8 8 5 8 13 20 17 15 15 13 9 11 10 9 5
13 14 20 16 24 25 24 18 10 15 17 13 12 12 13 12 11 13 7 11 9 9 3 1 3 4 3 3 5 7 10 12 11 10 12 15 19 14 14 12 8 6 11 9 7
15 17 21 26 21 26 22 19 17 13 17 17 9 11 10 10 8 5 10 10 14 9 6 3 6 6 7 8 9 11 13 17 16 13 14 17 17 15 16 14 5 4 6 4 7
15 18 22 22 25 25 21 21 21 16 15 16 11 13 14 13 10 11 10 10 13 11 10 10 8 13 13 12 12 11 6 9 12 13 14 16 15 11 13 13 6 1 1 1 6

GFSSW_700_spd_162.txt.gz
Wind_Speed
8 6 6 5 4 3 2 1 2 2 2 4 6 10 12 16 15 13 12 10 6 7 6 5 3 2 5 8 14 12 1 7 13 12 14 12 13 10 1 3 8 4 12 11 8
9 8 7 6 5 4 3 2 1 3 3 3 5 7 10 11 16 17 15 12 9 8 8 5 3 3 10 10 12 12 3 12 16 17 18 17 15 10 5 7 8 7 12 7 8
9 8 8 7 6 6 5 4 2 2 2 3 3 5 7 11 12 17 18 15 13 11 11 6 2 6 8 6 14 11 5 15 15 10 14 14 15 9 6 10 9 10 9 12 14
9 8 7 7 7 7 7 6 4 2 1 2 3 4 7 10 9 12 20 18 15 13 13 8 3 2 3 5 10 8 0 11 11 8 6 14 10 5 6 8 11 9 7 11 10
9 9 8 7 7 8 7 6 5 4 1 1 3 5 8 11 8 9 15 20 17 14 14 11 5 5 4 2 7 7 2 8 14 12 9 8 13 12 8 7 11 11 10 11 12
9 8 8 8 9 9 8 7 7 6 4 2 3 6 11 13 11 5 9 20 20 16 17 13 7 5 3 1 4 4 5 9 17 9 11 9 12 11 12 9 10 13 10 13 16
10 8 7 7 7 7 7 7 8 8 7 6 5 7 11 9 7 6 9 21 23 20 18 11 10 5 6 3 0 4 5 12 12 9 8 9 7 13 12 11 7 10 10 11 13
10 8 7 7 6 5 6 8 9 10 11 11 11 10 7 4 3 8 13 23 23 22 18 14 10 8 3 2 4 4 3 4 4 11 6 5 9 11 11 11 10 12 10 7 10
10 8 6 6 4 3 4 5 7 8 8 9 12 13 6 3 6 11 17 23 22 23 19 14 10 7 4 4 4 2 1 2 5 10 9 9 9 11 11 16 3 14 12 8 7
10 8 6 5 3 1 1 2 2 2 5 7 12 10 9 8 12 14 18 24 24 24 20 14 11 10 9 8 2 5 4 4 5 8 11 14 10 8 14 14 9 10 12 12 8
11 9 6 4 2 1 3 5 3 5 5 5 9 12 11 12 10 11 13 21 24 25 20 15 15 16 11 7 5 9 12 12 9 8 6 10 15 15 14 16 14 17 17 14 12
11 9 7 4 2 4 4 4 4 9 7 10 11 13 11 9 7 9 15 16 21 22 23 18 18 11 11 12 13 12 15 14 11 7 5 6 7 11 20 20 18 18 19 14 16
11 9 7 5 3 3 3 5 5 8 7 6 11 11 8 7 4 4 13 15 16 19 21 21 11 17 14 12 13 15 17 14 12 5 6 7 10 13 14 17 22 24 22 21 15
12 10 8 5 4 3 2 7 5 5 4 5 8 9 6 5 4 5 9 11 11 9 11 16 15 9 11 16 15 19 9 7 8 9 1 3 5 5 8 14 21 28 28 25 22
13 11 8 7 5 5 4 4 3 1 2 4 7 7 5 2 3 5 11 7 6 3 4 6 5 5 9 12 11 6 5 6 8 8 8 6 5 5 9 9 10 20 31 29 24
14 12 9 7 6 8 5 4 1 1 2 6 7 6 4 4 3 1 9 9 6 6 7 6 6 5 4 5 6 4 7 11 8 5 4 12 9 11 7 5 3 6 16 25 33
13 11 10 8 9 11 9 7 3 3 2 4 6 9 5 5 4 6 5 11 7 8 8 7 7 6 9 10 8 8 9 2 2 1 7 5 5 9 11 6 7 7 10 19 30
14 11 10 9 9 12 11 10 6 3 1 3 6 9 10 8 8 5 7 8 10 9 4 1 6 3 6 13 13 12 14 8 6 4 5 4 6 4 5 5 8 10 10 12 20
14 12 11 9 10 14 17 13 4 4 2 1 4 7 11 10 11 9 11 12 9 5 5 1 2 2 6 1 8 10 13 15 5 5 2 4 7 8 7 4 12 13 9 10 8
13 12 10 10 13 17 20 18 9 6 1 3 3 4 4 10 14 9 7 2 4 6 11 4 2 1 5 7 8 10 5 6 7 4 4 4 5 7 6 6 9 12 10 10 13
12 10 10 11 14 19 20 21 16 7 4 2 4 3 2 5 13 12 5 8 10 10 13 6 3 3 4 2 4 8 8 5 4 3 6 2 4 6 5 8 9 12 11 12 14
11 10 12 12 17 20 19 19 20 15 9 6 5 6 6 6 9 10 11 6 11 8 10 6 5 2 7 8 8 5 3 1 3 4 4 3 5 7 9 9 14 14 14 13 17
11 12 15 17 15 15 14 12 11 19 17 8 7 6 10 9 7 7 9 7 5 5 6 8 4 8 4 4 5 1 2 2 4 6 9 5 6 9 15 14 17 14 12 11 11
10 8 16 21 23 21 18 16 12 11 17 13 9 10 12 11 8 8 9 7 8 8 7 5 3 4 7 3 4 4 7 7 7 7 11 17 19 17 17 19 20 14 13 10 10
10 11 15 14 26 26 25 19 13 11 15 12 11 10 14 13 11 11 12 12 14 10 9 7 2 3 5 5 5 7 7 12 13 12 13 15 17 16 20 20 17 13 12 11 10
13 13 16 20 17 24 25 23 19 17 13 13 14 16 18 14 8 9 14 13 18 14 13 12 9 9 10 9 10 11 12 15 16 18 18 17 23 19 17 17 16 12 11 9 8
15 15 17 19 20 22 21 21 16 20 16 13 14 16 18 12 9 9 10 10 12 17 17 12 10 13 16 15 14 13 15 13 15 20 17 20 20 15 14 12 12 11 8 10 8

GFSSW_700_spd_165.txt.gz
Wind_Speed
8 7 6 5 4 3 1 0 2 3 4 6 8 11 14 16 15 13 12 9 8 7 5 3 4 3 6 9 10 10 5 9 9 12 11 10 9 5 4 8 6 8 11 7 7
9 8 7 6 5 4 2 1 2 3 4 4 6 8 12 15 19 16 14 11 9 8 7 5 3 4 7 7 11 9 0 11 11 17 9 13 10 5 7 10 8 10 8 4 8
8 8 7 7 7 6 4 3 1 2 3 4 5 7 10 13 16 19 17 14 11 8 8 6 3 3 4 7 11 9 4 10 14 17 15 12 10 8 9 9 10 6 10 10 7
9 8 7 7 7 7 6 5 2 1 2 4 5 7 10 12 11 18 20 16 13 10 9 7 1 3 6 6 9 6 3 10 8 15 12 9 11 12 7 6 12 11 10 7 11
10 9 8 7 7 7 6 5 4 2 1 4 5 7 10 13 11 15 20 19 16 12 12 7 2 4 6 4 8 8 5 9 7 10 10 8 9 8 8 5 8 7 8 12 11
10 9 9 8 9 8 7 5 4 3 2 3 5 8 11 12 10 11 17 21 18 15 14 10 5 4 4 3 6 7 5 7 10 8 8 5 10 7 9 8 8 10 11 13 13
10 9 8 8 8 7 7 6 5 5 4 5 6 9 12 10 9 6 13 23 21 19 17 14 8 4 1 2 6 9 10 12 9 5 5 12 7 8 11 10 11 9 11 12 14
11 9 8 7 6 5 6 6 6 6 6 6 8 11 12 8 8 8 12 22 23 21 19 14 9 6 1 4 7 8 7 5 3 7 2 3 4 8 9 11 9 11 8 9 11
11 10 8 6 4 3 4 4 5 5 5 6 8 9 6 8 9 10 15 23 23 23 18 15 10 4 2 4 7 7 6 5 1 2 5 5 2 8 10 12 6 14 11 9 10
11 10 7 5 3 2 3 4 1 2 4 4 3 3 3 6 10 13 17 24 25 24 18 16 14 8 6 4 3 7 7 7 4 2 5 7 4 5 6 14 8 12 14 10 7
11 10 7 5 4 3 4 6 6 5 3 3 5 7 6 9 12 14 17 22 24 23 18 17 15 12 5 5 5 7 9 9 5 4 5 6 10 11 10 9 12 12 14 10 13
12 10 8 5 4 3 4 6 6 6 7 9 11 8 8 7 7 9 14 18 21 22 20 17 17 12 10 9 10 10 12 10 6 4 2 6 5 11 15 11 11 13 18 11 16
15 12 9 6 3 1 5 6 7 8 7 9 11 6 5 5 4 4 13 15 18 21 21 18 8 17 11 9 10 10 14 14 6 0 4 9 8 9 10 11 12 15 17 22 15
12 13 9 7 3 2 7 8 7 7 6 8 9 6 5 4 2 3 8 10 11 14 16 18 18 15 12 13 11 14 12 5 3 1 0 3 5 8 7 6 10 13 15 19 17
11 11 9 7 5 5 9 8 5 3 2 10 11 7 6 4 3 7 9 8 8 7 9 7 8 12 11 10 12 16 11 1 3 1 1 4 3 5 11 6 4 6 10 15 21
14 10 9 7 6 8 9 7 4 2 3 8 9 7 7 6 2 3 10 9 9 6 7 9 7 5 8 11 11 9 4 4 4 2 4 4 5 5 4 7 3 6 7 11 16
15 12 9 7 7 11 11 8 3 4 8 10 9 8 7 6 6 7 5 13 9 8 10 10 10 7 8 9 7 10 5 2 4 4 5 4 4 7 8 6 5 5 6 9 13
14 13 10 8 8 12 15 11 6 8 9 9 11 10 11 7 9 7 8 8 11 11 3 6 10 11 6 15 13 14 11 5 7 7 9 6 6 5 8 5 4 9 9 8 11
14 14 11 9 10 14 18 15 5 9 9 10 11 12 10 10 9 8 12 10 9 11 7 3 4 7 1 10 14 14 12 10 9 6 4 5 10 11 10 7 6 6 8 6 9
12 12 12 11 13 17 21 22 12 10 7 9 10 10 10 12 12 10 8 4 4 10 9 3 3 2 0 3 9 10 8 3 8 5 8 6 6 8 9 9 8 7 8 8 10
11 10 11 11 14 18 24 24 17 11 9 7 10 10 8 11 15 15 9 8 7 5 10 11 4 3 4 3 6 7 10 9 7 5 7 7 7 12 10 10 9 10 12 13 12
11 9 12 13 15 20 22 20 24 15 12 8 9 13 11 9 11 15 14 11 13 11 11 12 5 5 5 4 3 5 7 10 9 5 7 5 8 10 11 13 13 13 15 15 14
10 10 13 15 14 18 17 17 18 19 19 12 9 10 13 11 9 13 13 12 14 11 10 11 7 4 2 5 7 6 4 3 6 8 9 6 7 9 12 15 18 18 18 18 17
6 6 13 17 20 16 18 16 14 10 18 21 13 12 13 15 12 12 14 14 13 11 12 11 8 7 8 5 4 5 7 9 8 7 9 14 17 17 19 19 21 22 21 20 18
7 8 12 9 22 24 21 16 16 15 11 15 17 14 16 17 16 14 14 13 13 13 12 10 9 7 7 7 8 9 9 10 12 14 13 16 23 21 19 18 19 20 18 17 17
10 10 12 16 17 18 26 25 24 21 16 11 14 17 17 21 16 13 16 18 19 20 17 13 12 11 12 12 14 13 12 15 16 20 21 20 23 22 19 19 16 15 16 15 14
13 13 14 14 16 18 19 17 19 23 20 18 15 16 15 19 18 13 9 14 15 20 17 17 17 14 12 16 17 14 18 19 21 19 21 22 21 22 21 15 12 12 12 12 12

GFSSW_700_spd_168.txt.gz
Wind_Speed
7 6 5 4 3 2 0 2 3 4 6 8 11 13 17 16 14 12 11 10 8 7 5 4 3 3 6 7 10 6 1 6 9 12 9 11 7 3 5 6 4 6 8 7 4
8 7 7 6 4 3 2 1 2 4 6 7 8 11 14 17 16 15 13 11 9 8 7 6 3 3 7 7 11 4 2 8 7 13 9 11 8 4 5 6 6 8 4 4 4
8 7 7 6 5 5 4 3 2 3 5 7 7 9 12 14 16 19 16 13 10 9 8 7 3 3 4 8 10 6 1 10 10 16 7 11 10 8 6 5 8 4 5 8 4
8 8 7 6 6 5 4 4 3 2 4 5 7 9 10 13 7 20 18 15 12 10 9 8 2 3 4 4 10 3 3 8 17 16 12 10 12 6 6 7 9 7 5 9 9
9 8 7 6 5 5 5 4 3 2 1 4 6 8 11 14 14 14 20 17 14 12 12 8 1 3 3 3 7 5 6 8 4 17 12 11 11 8 5 7 7 6 8 8 10
10 9 8 7 7 6 6 5 5 4 1 2 6 8 10 9 11 11 19 19 17 14 13 9 4 3 2 5 3 4 7 6 8 20 15 6 7 8 7 5 7 7 8 7 9
10 8 7 6 6 6 6 6 6 5 3 1 5 8 11 10 10 9 16 22 20 17 14 10 5 1 0 3 8 11 9 9 9 7 8 6 8 8 9 7 10 8 8 8 8
10 8 6 5 4 4 5 6 5 6 5 2 5 10 8 10 10 8 11 22 20 17 15 11 6 3 2 5 8 8 4 3 1 3 7 12 4 9 11 9 10 8 7 7 7
9 8 6 5 3 3 3 3 3 4 3 4 5 8 6 9 9 9 12 21 20 18 15 12 7 4 2 7 6 5 6 5 2 2 4 6 4 10 12 10 11 11 8 6 7
10 9 7 5 2 2 1 2 1 3 2 4 3 2 4 5 11 10 13 21 20 20 15 13 7 5 4 3 2 7 7 6 4 1 2 3 4 6 10 11 4 12 13 9 7
13 9 8 6 3 2 2 5 5 2 5 5 5 4 3 6 10 12 15 20 20 17 12 14 10 11 6 3 1 4 5 6 4 2 4 5 5 8 7 11 12 11 15 13 10
12 10 7 6 2 2 6 7 5 4 5 6 7 6 7 8 7 10 15 12 15 16 14 10 12 8 3 5 6 4 4 3 3 4 1 5 5 8 10 8 10 13 15 15 15
11 10 7 5 2 4 7 8 5 6 7 8 7 6 5 8 5 8 11 11 14 16 14 13 6 10 9 6 6 5 6 5 3 0 3 5 1 3 9 7 10 15 18 17 16
10 10 7 4 3 6 8 12 8 8 4 9 7 5 5 6 4 5 11 9 11 13 14 14 13 11 7 10 8 7 3 3 5 4 2 3 4 3 2 3 7 11 17 21 23
12 10 8 6 5 8 10 12 8 6 4 11 10 9 7 5 4 3 11 8 8 11 11 10 11 13 13 11 9 6 7 2 6 5 4 5 5 5 1 1 6 4 7 16 22
15 10 9 7 6 10 13 11 9 4 4 10 10 9 9 7 4 7 9 10 10 7 9 6 9 7 9 9 7 7 2 3 4 7 14 7 5 7 2 1 1 2 4 9 16
15 14 10 9 7 12 15 11 5 9 7 10 11 11 10 7 7 9 11 11 8 9 11 10 10 7 8 7 6 9 9 12 8 10 8 4 4 10 2 3 3 1 4 8 11
15 14 12 11 8 13 16 9 10 5 12 11 11 12 11 10 8 9 9 10 13 10 4 13 15 12 10 13 10 13 13 14 4 8 9 5 7 7 5 9 5 2 5 5 8
14 12 12 11 10 14 18 16 10 7 10 9 11 13 14 11 8 11 11 9 8 12 6 7 5 12 13 12 16 13 15 12 12 12 11 15 5 12 11 10 8 6 2 4 5
10 12 12 12 12 15 17 19 13 11 9 10 14 15 15 14 13 12 11 8 11 13 11 4 7 8 8 4 10 15 6 11 13 7 9 7 7 10 5 9 11 8 7 7 7
6 8 11 11 13 18 19 18 17 11 13 7 11 12 13 12 14 14 10 7 9 10 13 7 6 8 5 7 5 9 12 13 14 9 11 9 6 5 9 9 11 12 11 10 9
5 3 10 12 13 15 18 16 16 11 15 10 13 10 14 14 13 16 15 9 11 7 8 10 8 8 3 8 9 9 12 12 15 12 13 13 17 8 11 13 13 15 16 14 15
6 8 10 12 10 13 15 16 17 13 12 9 9 10 11 13 14 15 15 14 14 11 12 10 9 10 12 9 10 8 8 9 12 15 19 14 12 5 9 14 16 17 20 19 19
4 1 8 14 19 12 13 12 12 15 17 17 11 10 11 15 16 12 13 15 16 14 15 12 13 12 15 6 3 6 10 10 12 17 18 18 18 17 14 13 13 22 22 22 20
5 7 10 5 10 13 15 10 13 11 11 15 17 15 10 14 18 16 15 13 18 18 14 14 14 10 10 7 6 9 10 11 13 15 17 20 22 19 20 18 15 19 19 20 18
9 9 11 15 16 14 16 16 16 13 15 11 11 11 16 14 14 16 17 17 16 18 17 17 15 10 12 11 10 13 14 16 15 15 17 17 18 19 19 19 19 19 18 17 16
11 12 12 12 11 12 13 11 12 23 18 19 15 17 10 13 23 22 18 17 18 17 18 18 15 11 16 8 11 16 18 18 18 17 17 19 17 17 19 18 17 15 14 14 15

GFSSW_700_spd_171.txt.gz
Wind_Speed
6 5 4 3 2 1 1 3 5 6 7 9 12 15 16 15 14 13 11 11 8 7 5 3 3 4 5 7 8 7 6 4 6 16 13 9 7 6 8 7 7 9 5 12 7
7 6 5 4 3 2 1 2 3 6 7 8 9 12 15 16 15 14 14 11 9 8 6 5 0 3 3 7 6 6 10 4 9 10 10 14 6 6 7 5 9 10 4 6 5
7 6 5 5 5 4 3 2 2 4 6 8 8 9 12 13 13 12 15 13 11 9 8 7 5 5 4 8 6 8 5 5 9 11 15 10 8 7 6 4 8 8 7 8 6
7 6 6 5 5 6 5 3 2 2 4 7 8 8 9 10 5 25 17 15 12 10 10 7 3 4 6 8 9 3 1 4 7 20 13 11 9 7 7 9 9 9 10 8 6
7 6 5 5 5 5 5 4 4 2 1 4 7 8 9 15 8 6 19 16 14 11 11 6 3 5 6 4 6 3 4 5 13 16 13 7 14 7 8 11 11 10 9 8 6
7 6 6 6 6 6 6 6 5 4 2 1 5 7 10 7 19 10 16 17 15 13 11 7 4 5 3 4 3 2 5 4 5 18 10 13 15 7 8 10 9 9 8 7 5
8 6 6 5 5 5 6 6 7 6 4 2 4 7 13 9 15 10 13 18 17 15 9 8 5 5 1 2 5 7 9 10 2 18 14 5 5 7 8 9 9 8 8 7 6
8 6 5 4 3 3 4 6 6 6 6 3 4 8 3 10 10 7 10 17 18 16 11 12 6 2 6 4 7 8 4 5 6 11 9 13 2 8 9 10 9 9 8 7 6
9 8 6 4 1 1 1 3 3 4 5 5 6 5 6 8 7 9 8 11 18 15 12 8 6 10 6 11 10 8 6 7 7 7 6 10 6 11 15 13 12 10 9 6 5
9 8 6 4 1 1 1 1 1 1 2 6 3 2 5 2 9 9 11 13 14 12 9 8 6 10 9 7 9 6 4 8 7 8 10 10 7 7 14 14 14 13 12 10 7
9 7 5 4 2 3 2 6 6 9 4 5 2 3 4 7 7 7 9 12 12 12 11 9 11 17 9 8 3 2 2 8 5 4 7 7 10 10 12 16 15 15 16 12 12
9 7 5 4 3 4 6 4 5 9 2 7 7 5 6 6 7 9 11 12 15 14 12 9 15 7 6 3 7 4 3 4 4 3 5 5 8 11 11 16 15 14 16 15 11
10 9 7 4 4 6 9 6 4 4 3 8 5 3 5 8 4 8 12 12 13 14 15 15 9 6 8 8 6 5 4 3 2 6 9 7 8 12 13 12 14 14 14 17 16
11 10 8 6 5 7 7 10 6 5 4 10 9 7 7 8 5 9 12 9 11 15 15 16 12 7 9 11 9 7 3 4 6 8 6 5 5 14 14 12 14 15 15 16 18
14 11 10 7 7 8 12 13 7 6 6 10 11 10 9 6 8 7 12 11 10 12 13 15 14 15 14 12 10 8 4 5 6 13 15 9 5 9 9 11 10 13 15 17 21
16 13 12 9 8 11 14 14 9 5 5 10 11 10 11 8 5 7 10 11 6 10 13 13 10 11 13 12 11 8 6 7 10 13 14 7 4 10 1 5 7 4 10 15 17
15 13 13 11 11 11 15 13 8 13 4 9 12 11 11 8 7 11 12 11 10 12 13 12 11 9 11 11 10 11 15 19 8 10 2 3 5 4 7 4 4 4 4 10 14
15 12 12 13 11 12 17 11 14 9 12 5 12 12 12 11 11 11 10 13 13 13 8 13 17 14 9 15 9 12 20 17 7 6 6 10 5 1 5 3 4 4 2 3 11
12 11 11 13 13 15 19 19 20 13 10 10 12 14 14 13 8 11 13 10 12 13 13 10 2 10 9 10 11 12 15 14 15 11 9 12 4 5 8 4 6 4 2 2 2
10 8 10 11 14 16 17 24 15 14 7 10 16 15 17 16 14 13 14 11 11 11 12 4 7 9 10 8 10 16 6 15 15 6 8 3 5 5 8 5 7 6 4 3 2
7 2 8 10 15 18 21 19 18 14 13 11 16 17 17 15 15 17 12 8 11 12 13 9 10 12 10 12 11 8 14 14 14 15 9 6 6 5 5 3 5 8 7 6 4
3 1 10 10 12 15 18 18 15 17 15 15 15 15 15 17 13 17 15 12 13 12 14 14 10 15 12 8 11 11 13 14 14 12 17 15 6 4 5 5 8 10 9 8 9
5 6 9 9 9 14 16 17 18 14 16 15 17 17 17 16 14 15 16 13 13 12 12 12 13 17 15 10 7 15 17 16 19 18 16 12 6 6 2 4 7 10 9 9 12
3 1 6 10 12 11 10 18 18 17 19 18 17 16 17 18 19 17 16 15 14 14 17 14 15 19 17 9 9 8 11 12 15 18 17 17 5 4 6 5 9 11 12 12 13
2 4 11 3 8 13 15 13 14 17 13 16 21 20 17 19 21 21 17 17 14 18 15 17 20 16 15 14 9 13 13 9 12 15 17 21 20 19 18 16 9 11 13 16 14
5 6 8 13 12 12 11 16 17 15 17 15 18 18 22 20 20 14 17 21 17 18 18 16 19 15 13 13 14 14 14 15 17 17 18 19 19 16 13 14 16 17 17 16 14
13 11 12 8 9 12 12 15 16 18 21 16 15 16 16 18 18 17 14 15 12 20 16 19 19 18 18 13 13 17 16 19 18 19 18 20 18 16 15 17 17 18 16 17 14

GFSSW_700_spd_174.txt.gz
Wind_Speed
7 6 5 4 2 1 1 3 4 5 6 8 12 15 15 14 13 12 11 12 7 6 5 4 1 3 6 6 11 9 17 12 5 14 11 13 9 8 11 13 9 8 9 7 3
6 6 5 5 4 3 2 2 4 5 6 7 8 11 15 15 15 14 15 10 9 8 6 4 4 4 6 11 14 11 10 8 6 4 16 5 10 7 9 11 12 14 12 4 2
7 6 5 5 5 5 4 3 2 4 6 7 7 8 10 13 12 13 14 13 10 9 8 6 7 9 9 13 15 7 10 8 5 9 17 13 10 5 8 10 8 11 14 14 3
8 7 6 6 6 6 5 4 3 2 4 6 6 7 7 9 3 14 13 15 13 10 9 6 6 6 12 14 7 5 4 6 8 11 15 19 9 10 9 11 9 10 13 11 10
7 6 6 6 6 5 5 5 4 3 1 4 6 6 7 14 8 5 12 17 14 11 10 4 5 7 12 12 7 18 8 4 5 14 2 9 15 12 9 10 10 12 11 8 9
7 7 7 6 6 6 6 6 6 5 3 1 4 7 11 9 19 15 8 16 15 12 11 6 6 9 9 5 8 1 3 2 8 10 10 16 11 19 10 9 9 10 9 7 7
9 7 6 5 4 4 5 6 6 6 4 1 3 8 14 5 11 17 8 15 16 15 7 8 9 8 13 6 5 2 5 4 4 14 10 13 10 11 14 6 7 10 9 8 7
9 8 6 5 3 3 4 5 6 6 5 3 3 7 4 10 8 11 8 12 17 16 11 7 13 10 11 3 5 4 4 4 1 11 15 10 9 9 17 16 10 10 9 7 4
8 7 6 5 4 3 3 4 5 6 7 6 6 5 3 12 9 7 8 9 12 14 13 8 9 9 9 9 10 1 11 7 5 8 7 17 14 17 20 18 14 12 9 9 8
8 7 5 4 4 4 2 2 5 7 3 7 4 1 4 7 5 9 10 8 10 11 10 10 10 12 15 13 8 25 19 9 3 13 10 10 7 12 16 16 13 14 15 10 7
8 7 6 5 5 5 2 7 11 14 5 2 6 3 7 6 9 8 9 8 11 10 10 9 11 16 12 7 16 1 8 13 2 12 12 5 10 6 13 18 13 18 12 7 16
11 8 7 7 6 6 6 4 8 7 11 11 9 11 6 7 3 6 9 10 12 12 10 14 13 5 7 11 11 6 1 3 4 7 19 12 16 9 5 12 16 17 21 20 13
13 11 8 7 7 7 8 6 5 5 8 8 12 8 6 7 5 7 11 11 9 13 13 15 9 7 9 7 18 14 2 9 2 5 9 10 6 12 17 18 18 17 14 21 16
15 13 11 8 6 7 4 5 2 5 7 12 12 6 10 8 6 9 11 10 10 13 13 15 13 8 10 10 8 11 7 4 5 6 9 10 8 8 13 19 21 19 14 15 14
17 14 14 10 7 7 4 8 6 3 6 15 11 8 9 7 7 8 10 12 12 12 14 15 14 14 10 11 9 12 6 8 9 10 17 14 1 5 13 23 22 22 17 16 19
16 14 15 13 9 12 8 10 4 5 11 9 13 9 14 9 8 6 10 12 9 12 14 16 9 12 13 12 12 10 10 12 12 15 17 18 18 9 18 10 29 26 18 13 15
15 15 14 14 14 12 13 13 6 14 7 10 12 9 13 9 10 6 10 12 12 10 13 12 15 10 12 12 10 11 13 20 6 5 10 7 4 6 6 5 16 16 11 11 14
13 12 13 13 14 12 15 11 13 11 14 5 9 11 12 14 10 7 10 12 12 15 16 15 14 15 12 14 15 9 17 16 11 3 4 14 14 10 13 9 7 9 7 6 8
12 9 10 12 14 15 17 20 20 14 8 7 9 16 14 12 10 10 12 13 14 11 17 8 5 12 12 8 11 9 11 12 13 22 15 13 12 14 14 9 5 7 5 4 6
10 7 2 9 13 16 18 25 18 16 18 11 10 13 13 15 14 14 13 10 14 13 15 12 6 9 10 9 11 14 13 10 9 3 5 10 5 20 12 8 8 10 3 7 7
6 4 10 7 12 18 20 20 18 17 12 13 11 16 16 16 20 15 14 15 10 12 12 11 9 4 11 11 13 10 10 12 12 14 7 6 12 9 8 7 9 8 10 9 5
2 5 18 12 11 14 18 17 17 18 14 14 18 19 21 19 16 21 16 13 14 12 12 14 13 11 15 9 11 10 7 9 14 10 12 18 2 5 7 3 5 7 14 8 9
3 8 12 8 10 10 13 16 18 19 20 18 16 18 18 18 18 16 15 13 11 12 10 12 13 14 13 13 7 7 12 14 16 17 17 13 8 3 8 4 4 8 7 11 10
2 3 5 8 12 13 13 12 17 19 20 19 18 17 19 20 21 19 15 14 12 13 15 13 13 15 17 4 17 13 11 12 10 15 14 7 10 9 4 10 12 11 10 10 9
4 1 7 5 5 12 14 16 17 15 17 16 20 18 18 18 19 20 19 16 15 18 16 16 20 18 17 12 9 11 10 11 9 11 13 19 13 6 6 4 7 9 13 8 11
6 8 14 14 13 13 14 14 16 17 14 18 15 18 20 22 20 20 19 20 18 19 16 18 18 17 20 18 15 13 13 14 16 17 16 16 18 15 13 8 9 10 13 15 17
12 13 10 12 11 12 13 14 15 16 18 18 17 17 17 17 15 20 15 14 9 15 18 19 20 18 19 17 16 17 14 15 16 17 17 18 14 10 8 6 11 15 16 18 14

GFSSW_700_spd_180.txt.gz
Wind_Speed
7 6 5 4 2 1 1 3 5 6 9 12 15 15 15 15 14 12 9 9 7 7 6 7 11 5 3 5 5 9 14 19 9 13 10 18 17 8 6 9 4 1 1 1 7
8 6 6 5 4 2 1 2 4 5 7 8 10 13 16 16 15 12 10 9 8 7 7 8 11 2 4 6 3 6 11 12 15 8 12 14 16 16 6 7 6 9 9 4 7
8 7 6 6 5 3 2 1 2 4 6 7 9 9 11 14 14 9 14 10 10 9 7 4 3 5 6 8 12 17 18 14 9 6 12 17 18 10 10 9 4 6 5 8 9
9 8 7 7 6 5 4 3 2 2 4 6 8 8 9 10 5 13 15 13 13 10 7 4 4 0 8 11 9 19 15 8 5 6 14 9 15 12 15 5 4 10 4 8 8
8 7 7 6 6 5 5 4 3 2 3 5 7 8 8 8 10 5 10 15 15 13 10 7 4 6 19 8 9 12 9 8 2 8 10 16 11 12 10 4 5 7 6 6 6
9 7 6 5 5 5 5 4 4 3 2 3 5 7 7 6 12 10 8 6 18 15 12 9 4 12 8 13 10 3 3 7 5 8 14 9 17 18 14 2 7 2 5 4 10
8 7 6 5 5 4 5 5 5 5 3 2 2 4 6 8 6 4 4 5 17 16 13 11 3 12 5 12 7 2 3 0 3 8 17 14 9 18 11 4 2 2 2 5 14
9 8 7 6 5 4 4 5 6 6 5 3 2 2 7 7 8 6 3 7 16 17 15 13 4 10 7 8 6 7 4 4 4 9 14 13 21 24 15 9 12 13 10 7 12
10 9 8 7 5 4 3 3 6 6 6 5 6 8 5 4 5 6 4 12 16 16 14 12 5 3 5 7 10 5 10 5 4 7 12 12 11 17 14 11 10 15 17 10 10
11 10 9 8 7 5 2 1 2 4 1 1 2 2 4 5 7 9 4 12 15 16 15 14 5 2 5 8 7 14 14 10 5 8 16 13 12 12 18 16 13 15 18 15 12
13 11 10 9 7 6 3 3 4 4 5 5 4 6 1 4 9 10 7 8 8 7 14 13 9 11 9 13 9 2 10 10 7 7 10 10 11 8 13 20 19 19 15 19 15
15 13 11 10 8 6 5 5 8 13 10 9 10 11 7 5 3 9 6 7 13 9 11 9 14 9 11 9 0 5 4 4 2 10 12 12 5 6 9 20 23 20 15 23 20
15 15 13 11 8 4 3 6 3 7 16 3 5 6 10 6 2 5 3 10 10 4 7 10 7 11 12 10 12 7 8 7 10 8 20 13 10 9 11 18 23 25 24 25 25
16 15 13 12 8 5 9 12 8 6 10 3 7 8 9 5 6 8 2 4 9 7 3 9 11 14 14 14 15 9 3 4 12 15 13 18 5 7 10 14 22 26 27 23 22
17 14 16 10 9 8 10 12 10 4 4 3 6 5 7 11 6 4 8 8 11 12 12 16 12 11 20 10 11 13 12 15 6 21 8 18 5 8 15 17 17 21 26 21 14
15 13 12 9 11 15 13 9 8 4 7 10 10 7 9 8 9 5 10 6 11 12 13 17 16 16 18 9 16 13 11 8 11 19 7 11 11 17 18 19 16 20 18 20 17
16 14 9 8 13 15 15 10 7 7 3 8 14 11 6 10 10 17 11 10 15 12 15 14 16 18 17 13 13 17 12 1 2 2 5 11 12 21 12 7 12 15 17 19 18
15 13 10 8 11 14 16 14 10 4 3 11 15 10 11 11 12 18 14 7 9 12 13 14 13 13 21 21 16 16 19 9 6 3 1 13 8 6 9 9 10 10 14 19 20
14 12 8 4 9 15 16 22 13 3 2 8 5 14 18 15 15 24 23 13 9 12 16 7 13 18 19 17 11 15 11 9 21 11 4 1 2 7 14 12 12 18 16 19 15
11 9 4 0 7 14 18 23 22 15 6 7 14 13 8 11 5 27 28 19 13 14 14 17 12 8 9 14 11 11 8 7 2 2 3 4 5 9 15 18 19 15 12 13 10
8 5 1 1 4 7 18 23 22 19 18 17 12 20 12 15 10 5 15 24 20 14 15 20 22 13 14 20 18 12 14 16 11 6 6 4 6 14 19 16 14 15 15 13 8
3 1 3 6 9 8 10 13 12 8 8 16 13 14 17 11 10 11 11 11 18 19 20 16 13 11 9 11 16 9 7 5 6 2 1 4 4 10 14 18 18 14 17 12 9
2 6 3 3 6 9 6 11 12 14 6 10 15 15 12 15 14 11 15 10 11 12 18 18 13 10 7 3 12 12 7 4 4 6 2 6 9 15 13 10 11 19 20 13 14
7 8 12 10 13 14 12 10 12 10 12 13 18 16 18 18 16 14 16 17 12 15 19 13 21 13 9 2 5 12 18 14 12 5 1 5 24 19 19 11 16 13 16 17 19
9 14 13 13 15 14 13 12 13 16 13 10 8 5 9 19 23 18 18 18 14 8 11 17 19 18 9 6 7 10 9 8 4 2 2 16 17 13 19 21 18 16 19 18 19
13 17 17 17 17 20 14 12 11 14 10 14 19 12 9 13 4 11 17 19 7 13 17 9 10 15 20 11 10 11 12 12 13 14 14 10 9 12 15 18 23 22 22 23 24
17 18 21 19 18 19 17 18 17 16 12 10 20 21 20 12 6 4 10 15 13 11 10 9 11 13 15 17 15 12 13 11 11 23 19 16 13 11 16 19 19 21 20 20 22

GFSSW_700_spd_183.txt.gz
Wind_Speed
6 5 4 3 1 1 3 4 6 8 11 14 15 14 14 13 11 10 9 10 7 9 8 9 7 3 3 7 11 8 8 10 12 10 13 11 8 8 11 7 7 7 6 3 1
6 5 4 3 2 1 2 3 5 7 8 9 11 14 15 14 13 10 11 11 10 9 10 11 9 2 3 9 7 5 12 22 14 6 8 11 10 13 11 6 8 6 12 5 2
7 5 4 4 3 2 2 2 3 5 7 8 9 9 11 13 12 12 14 11 11 10 10 13 8 6 7 13 5 10 19 18 9 7 20 13 11 10 8 4 5 11 3 3 4
8 7 6 5 4 4 3 2 1 3 5 7 8 8 7 7 7 14 15 13 13 11 10 8 5 1 10 8 4 14 12 12 9 4 17 17 14 9 8 4 6 7 1 6 9
8 7 6 5 5 5 4 4 3 2 2 4 6 6 6 7 8 10 15 16 15 13 10 8 6 4 2 6 8 8 6 7 0 4 8 19 20 14 7 5 4 4 4 7 9
7 6 5 5 4 4 5 4 4 3 3 2 3 5 6 8 14 8 11 17 17 17 13 10 5 5 3 4 9 8 6 7 2 4 7 8 8 11 12 7 3 4 7 11 14
8 7 5 5 4 3 4 4 5 5 4 3 1 2 6 9 9 5 9 12 17 19 14 11 4 6 5 2 9 12 7 3 4 7 12 3 11 8 7 2 2 3 5 8 13
9 9 8 6 5 4 3 3 4 5 5 5 6 4 6 5 1 4 7 10 19 23 17 11 3 1 4 3 8 10 1 1 3 8 14 16 9 13 11 6 5 7 7 5 9
10 9 9 8 6 4 3 1 2 3 4 7 8 10 6 5 2 4 10 16 20 21 18 14 8 8 7 10 9 4 5 5 2 13 16 16 13 18 9 14 11 11 9 8 6
11 10 9 8 7 5 4 3 2 3 2 3 6 8 6 4 3 10 12 19 18 19 18 17 13 13 13 13 9 10 14 8 4 6 18 18 16 16 21 20 19 17 14 11 7
12 11 11 9 7 6 5 5 4 5 5 7 4 10 8 5 1 4 6 19 21 19 18 14 19 19 13 9 12 16 3 6 5 8 11 12 12 18 22 25 25 25 22 17 8
13 12 12 10 7 5 5 8 10 9 2 6 9 11 11 8 7 4 7 15 19 18 19 18 23 13 10 12 13 14 3 9 10 9 11 11 15 15 19 22 30 30 21 17 14
14 12 12 11 8 7 8 15 11 8 11 5 5 13 6 6 3 4 3 9 13 16 20 20 11 9 10 14 12 12 12 11 11 7 11 14 20 19 17 19 26 29 23 19 14
15 12 10 11 9 9 12 15 12 7 8 1 7 10 12 9 6 7 4 11 16 16 12 10 7 12 16 14 14 12 8 12 13 7 6 11 8 13 14 18 26 30 28 23 18
16 11 11 9 9 11 10 13 10 4 3 6 6 9 13 9 9 5 9 11 14 14 9 10 9 9 11 8 14 13 9 9 10 13 12 16 8 8 8 18 18 23 23 22 21
16 11 11 7 10 14 13 10 7 3 4 7 11 8 16 11 9 2 14 13 10 14 13 14 12 15 11 12 13 16 13 7 14 7 8 24 17 11 8 9 13 14 14 18 14
16 14 10 8 11 14 16 12 5 5 3 2 12 9 7 12 12 10 14 16 15 14 17 14 19 21 17 17 18 18 17 3 0 2 8 9 14 17 16 12 5 10 8 11 13
14 12 10 8 6 13 19 14 8 2 3 4 14 13 12 13 13 13 15 16 16 18 8 8 6 22 19 23 18 12 18 11 6 4 3 6 9 7 4 5 3 8 8 9 13
12 10 7 4 6 13 20 18 7 7 2 7 7 14 20 15 15 17 18 18 14 18 12 8 7 4 14 23 22 14 14 11 11 10 2 5 10 10 9 9 4 5 4 5 12
8 7 3 1 5 11 17 21 15 10 4 7 4 2 5 6 11 17 23 17 22 20 18 9 10 6 10 9 19 15 10 7 6 3 4 4 6 8 13 14 7 7 9 8 10
5 3 3 1 3 6 14 16 17 16 16 14 10 10 5 3 5 7 18 20 19 24 19 25 18 14 11 15 17 20 19 15 8 5 6 2 7 9 17 11 9 10 8 11 9
3 5 4 0 2 2 2 4 6 6 4 13 17 8 9 6 8 6 8 13 10 6 12 19 21 20 21 16 18 21 14 13 8 6 5 4 8 10 9 20 18 18 15 14 9
5 8 7 5 5 3 4 6 6 5 2 3 7 11 10 14 9 9 7 6 9 6 5 16 16 16 7 11 16 12 13 10 8 9 9 6 6 10 14 15 21 19 18 18 15
5 8 11 10 13 12 10 5 8 8 7 8 5 10 12 10 12 8 12 12 9 7 8 11 12 19 18 14 12 11 17 12 11 10 8 11 9 16 14 10 12 17 15 16 13
8 12 15 11 18 16 13 12 15 14 9 9 7 10 7 10 11 13 16 17 12 10 10 11 15 11 16 15 10 10 10 13 14 14 12 9 12 14 12 11 14 12 8 15 18
11 13 15 19 18 17 20 19 19 17 13 8 8 8 14 11 11 9 13 14 13 8 12 10 8 8 16 14 14 14 10 13 12 13 10 7 11 10 14 16 18 15 16 17 19
14 16 18 20 22 22 23 24 24 25 15 15 13 13 11 12 10 8 11 12 10 13 9 6 10 10 15 13 10 11 18 18 16 10 18 17 16 15 17 19 21 21 19 17 17